www.pogodaiklimat.ru

Погода и климат >> Архив погоды >> Таиланд >> Бангкок 2


ПОГОДА в Бангкоке 2

  • Прогноз погоды в Бангкоке 2
  • Монитор погоды в Бангкоке 2

АРХИВ ПОГОДЫ в Бангкоке 2

Время (UTC), дата Ветер
(напр.,м/с)
 
Видим.   Явления Облачность Т
(С)
Тd
(С)
f
(%)
Тe
(С)
Тes
(С)
Комфортность P
(гПа)
Po
(гПа)
Тmin
(С)
Tmax
(С)
R
(мм)
R24
(мм)
S
(см)
00 17.09 штиль 0 10 км 8/3 600 м
[Cu med, cong Ac lent Cs]
+26.8 +24.9 89 +38 +39 очень
душно
1007.9 1007.2 +26.0
03 17.09 З 4 10 км 8/5 600 м
[Cu med, cong Ac lent Cs]
+30.5 +24.5 70 +43 +46 опасность
перегрева
1008.9 1008.2
06 17.09 ЮЗ 3 10 км 8/8 600 м
[Cu med, cong Cs]
+33.2 +25.2 63 +47 +51 опасность
перегрева
1006.4 1005.7
09 17.09 ЮЗ 5 10 км 8/6 600 м
[Cu med, cong Cs]
+32.5 +23.1 58 +43 +44 опасность
перегрева
1004.7 1004.0
12 17.09 ЮЗ 4 10 км 10/3 600 м
[Cu med, cong Ac As Cs]
+30.0 +25.0 75 +43 +43 опасность
перегрева
1007.0 1006.3 +34.7
00 18.09 штиль 0 8000 м дымка 6/0
[Cs]
+26.0 +25.0 94 +37 +38 очень
душно
1009.2 1008.5 +25.1 4
03 18.09 СВ 5 10 км 8/3 600 м
[Cu med, cong Cs]
+31.7 +24.7 67 +45 +49 опасность
перегрева
1010.1 1009.4
06 18.09 СВ 4 10 км 8/8 600 м
[Cu med, cong Cs]
+33.5 +24.7 60 +47 +49 опасность
перегрева
1007.2 1006.5
09 18.09 В 3 10 км 9/8 600 м
[Cu Sc Cs]
+35.0 +23.2 51 +46 +47 опасность
перегрева
1005.1 1004.4
12 18.09 штиль 0 10 км 8/3 600 м
[Cu med, cong Cs]
+31.5 +25.9 72 +47 +47 опасность
перегрева
1007.2 1006.5 +35.5
00 19.09 штиль 0 8000 м слаб. дождь 10/3 600 м
[Cu med, cong Ac As Cs]
+26.0 +25.3 96 +38 +38 очень
душно
1009.5 1008.8 +25.5 30
03 19.09 штиль 0 8000 м дымка {дождь} 10/3 600 м
[Cu med, cong Ac As Cs]
+28.5 +25.7 85 +42 +49 опасность
перегрева
1011.1 1010.4 0.0
06 19.09 С 5 10 км {дождь} 8/3 600 м
[Cu med, cong Cs]
+31.0 +25.0 70 +44 +51 опасность
перегрева
1008.6 1007.9 0.0
09 19.09 СВ 4 10 км 9/3 600 м
[Cu med, cong Ac As Cs]
+31.4 +24.4 66 +44 +45 опасность
перегрева
1006.8 1006.1
12 19.09 штиль 0 10 км 10/5 600 м
[Cu Sc Ac As Cs]
+29.0 +25.5 81 +43 +43 опасность
перегрева
1008.1 1007.4 +31.8
00 20.09 штиль 0 4000 м дымка 10/3 600 м
[Cu med, cong Ac As Cs]
+25.5 +25.2 98 +37 +37 очень
душно
1009.2 1008.5 +25.0 62
03 20.09 штиль 0 8000 м дымка 10/5 600 м
[Cu Sc Ac As]
+28.5 +26.0 86 +43 +46 опасность
перегрева
1010.4 1009.7
06 20.09 З 3 8000 м дымка {гроза} 10/4 600 м
[Cu med, cong Ac As Cs]
+29.0 +25.5 81 +43 +48 опасность
перегрева
1007.8 1007.2 1
09 20.09 ЮЗ 4 10 км 10/6 600 м
[Cu Sc Ac As]
+31.5 +24.4 66 +44 +44 опасность
перегрева
1005.6 1004.9
12 20.09 штиль 0 10 км 10/5 600 м
[Cu Sc Ac As Cs]
+29.5 +24.5 75 +42 +42 опасность
перегрева
1007.7 1007.0 +32.0
00 21.09 штиль 0 10 км {дождь} 10/8 600 м
[Cu Sc Ac As]
+26.5 +26.1 98 +40 +40 очень
душно
1008.8 1008.1 +22.3 3
03 21.09 штиль 0 10 км 10/8 600 м
[Cu Sc Ac As]
+29.7 +25.2 77 +43 +44 опасность
перегрева
1009.7 1009.0
06 21.09 штиль 0 2000 м гроза, ливневой дождь 10/5 300 м
[Cb cap Ac As]
+25.3 +24.9 98 +36 +40 очень
душно
1008.3 1007.6 13
09 21.09 штиль 0 3000 м слаб. дождь {гроза} 10/8 600 м
[Cu Sc Ac As]
+25.2 +24.9 98 +36 +36 очень
душно
1006.4 1005.7 9
12 21.09 штиль 0 4000 м слаб. дождь {гроза} 10/8 600 м
[Cu Sc Ac As]
+25.1 +23.8 93 +34 +34 очень
душно
1008.2 1007.5 +29.7 0.5
00 22.09 штиль 0 7000 м дымка 10/8 600 м
[Cu Sc Ac As]
+25.5 +25.1 98 +37 +37 очень
душно
1010.6 1009.9 +24.8 1
03 22.09 В 2 9000 м слаб. дождь 9/8 600 м
[Cu Sc Ac As Cs]
+26.2 +25.3 95 +38 +40 очень
душно
1012.0 1011.3 3
06 22.09 В 3 10 км {дождь} 9/6 600 м
[Cu Sc Ac As Cs]
+27.2 +23.2 79 +37 +41 очень
душно
1010.5 1009.8 0.0
09 22.09 СВ 3 10 км 8/6 600 м
[Cu Sc Ac As Cs]
+29.2 +22.8 68 +39 +40 очень
душно
1008.9 1008.3
12 22.09 штиль 0 10 км 8/5 600 м
[Cu Sc Ac As Cs]
+27.0 +22.4 76 +35 +35 очень
душно
1010.1 1009.4 +29.6
00 23.09 штиль 0 8000 м в посл. час дождь 10/8 600 м
[Cu Sc Ac As]
+24.8 +24.5 98 +35 +35 очень
душно
1012.6 1011.9 +24.0 5
03 23.09 ЮВ 3 10 км 10/8 600 м
[Cu Sc Ac As]
+25.8 +24.9 95 +37 +37 очень
душно
1013.9 1013.2
06 23.09 В 2 10 км 9/6 600 м
[Cu Sc Ac As Cs]
+28.1 +25.1 84 +41 +46 опасность
перегрева
1011.4 1010.7
09 23.09 Ю 2 8000 м слаб. дождь 9/8 600 м
[Cu Sc Ac As Cs]
+26.6 +25.7 95 +39 +40 очень
душно
1010.3 1009.6 9
12 23.09 штиль 0 8000 м слаб. дождь 10/8 600 м
[Cu Sc Ac As]
+26.4 +25.8 97 +39 +39 очень
душно
1011.9 1011.2 +29.5 0.4

 

Местоположение метеостанции Бангкок 2 (Таиланд): широта 13.70 долгота 100.57 высота над уровнем моря 6 м.

В архиве по умолчанию представлена погода в Бангкоке 2 за последнюю неделю. Архивные данные за месяц целиком и за предыдущие месяцы, начиная с января 2011 года, Вы можете получить, выбрав интересующий диапазон дат из раскрывающегося списка и нажав кнопку "Ввод!".


*Определитесь, кто Вы:
робот инопланетянин человек

Внимание! Время в таблицах - всемирное. Для получения местного времени необходимо прибавить поправку, которая равна 7 ч.

Смотрите также архив погоды в соседних городах и на ближайших метеорологических станциях:

Погода в Бангкоке (Таиланд) (4 км)
Погода в Бангна Агромете (Таиланд) (6 км)
Погода в Аэропорту Суварнабхуми (Таиланд) (21 км)
Погода в Дон Муанг (Таиланд) (25 км)
Погода в Самутрудкан Агромете (Таиланд) (28 км)
Погода в Бангкок Пилот (Таиланд) (36 км)
Погода в Патхумтхани (Таиланд) (45 км)
Погода в Чонбури (Таиланд) (58 км)
Погода в Ратбури (Таиланд) (58 км)
Погода на Ко Сичан (Таиланд) (64 км)

Пояснения к столбцам:

Ветер - указаны скорость ветра в м/с - средняя за 10 мин, порывы в срок и между сроками (в фигурных скобках) и направление, откуда дует ветер: С - северный, СВ - северо-восточный, В - восточный, ЮВ - юго-восточный, Ю - южный, ЮЗ - юго-западный, З - западный, СЗ - северо-западный.
Видимость - горизонтальная дальность видимости в метрах или километрах. При видимости от 1 до 10 км при отсутствии осадков обычно наблюдается дымка, при ухудшении видимости до 1 км и менее - туман. В сухую погоду видимость может ухудшаться дымом, пылью или мглою.
Явления - указаны атмосферные явления, наблюдавшиеся в срок или в последний час перед сроком; фигурными скобками обозначены явления, наблюдавшиеся между сроками (за 1-3 часа до срока); квадратными скобками обозначены град или гололедные отложения с указанием их диаметра в мм.
Облачность - указаны через наклонную черту общая и нижняя облачность в баллах и высота нижней границы облаков в метрах; квадратными скобками обозначены формы облаков: Ci - перистые, Cs - перисто-слоистые, Cc - перисто-кучевые, Ac - высококучевые, As - высокослоистые, Sc - слоисто-кучевые, Ns - слоисто-дождевые, Cu - кучевые, Cb - кучево-дождевые. Подробнее классификацию облаков см. в Атласе облаков (PDF).
T - Температура воздуха - температура, измеренная на высоте 2 м над землей.
Td - Температура точки росы - температура, при понижении до которой содержащийся в воздухе водяной пар достигнет насыщения.
f - Относительная влажность воздуха - влажноcть воздуха, измеренная на высоте 2 м над землей.
Te - Эффективная температура - температура, которую ощущает одетый по сезону человек в тени. Характеристика душности погоды. При расчете учитывается влияние влажности воздуха и скорости ветра на теплоощущения человека.
Tes - Эффективная температура на солнце - температура, которую ощущает человек, с поправкой на солнечный нагрев. Характеристика знойности погоды. Зависит от высоты солнца над горизонтом, облачности и скорости ветра. Ночью, в пасмурную погоду, а также при ветре 12 м/с и более поправка равна нулю.
P - Атмосферное давление - приведенное к уровню моря атмосферное давление.
Po - Атмосферное давление - измеренное на уровне метеостанции атмосферное давление.
Tmin - Минимальная температура - минимум температуры воздуха на высоте 2 м над землей.
Tmax - Максимальная температура - максимум температуры воздуха на высоте 2 м над землей.
R - Количество осадков - Количество выпавших осадков за период времени, мм. При наведении курсора мыши на число - период времени, за который выпало указанное количество осадков.
R24 - Количество осадков - Количество выпавших осадков за 24 часа, мм.
S - Снежный покров - Высота снежного покрова, см. При наведении курсора мыши на число - состояние снежного покрова и степень покрытия местности в баллах.